Flag for Russia Weather past 2 weeks in Gelendzhik, Russia

Now
46 °F

Clear.


Feels Like: 41 °F
Forecast: 44 / 63 °F
Wind: 10 mph from East

Location: Anapa / Vitiazevo

Current Time: Oct 2, 2014 at 5:11:45 AM

Latest Report: Oct 2, 2014 at 4:00 AM


Visibility: 10 mi

Pressure: 30.30 "Hg

Humidity: 82%

Dew point: 41 °F

Location of GelendzhikLocation

Historic Weather in Gelendzhik — Graph

°F

Gelendzhik temperature yesterday

Maximum temperature yesterday: 70 °F (at 2:30 PM)
Minimum temperature yesterday: 45 °F (at 11:00 PM)
Average temperature yesterday: 61 °F

Past Weeks' High & Low Weather Summary

 TemperatureHumidityPressure
High79 °F (Sep 17, 3:00 PM)100% (Sep 30, 6:00 AM)30.30 "Hg (Sep 30, 6:00 AM)
Low39 °F (Sep 30, 1:00 AM)34% (Sep 17, 4:00 PM)29.27 "Hg (Sep 24, 1:00 AM)
Average60 °F69%29.97 "Hg
* Reported Sep 17 4:00 AM — Oct 2 4:00 AM, Gelendzhik, Weather by CustomWeather, © 2014

Note: Actual official high and low records may vary slightly from our data, if they occured in-between our weather recording intervals... More about our weather records

Advertising

Gelendzhik weather history for previous 24 hours

 ConditionsComfort  
Time TempWeatherWind HumidityBarometerVisibility
4:00 AM
Oct 2
46 °FClear.10 mph82%30.30 "Hg10 mi
3:00 AM48 °FClear.8 mph76%30.27 "Hg10 mi
2:00 AM46 °FClear.8 mph76%30.27 "Hg10 mi
1:00 AM46 °FClear.6 mph87%30.24 "Hg10 mi
12:00 AM46 °FClear.3 mph82%30.24 "Hg10 mi
11:00 PM
Oct 1
45 °FClear.3 mph87%30.24 "Hg10 mi
10:00 PM50 °FClear.3 mph82%30.24 "Hg10 mi
9:00 PM50 °FClear.3 mph88%30.21 "Hg10 mi
8:00 PM54 °FSunny.3 mph82%30.18 "Hg10 mi
7:30 PM57 °FSunny.6 mph77%30.18 "Hg10 mi
7:00 PM61 °FSunny.8 mph68%30.18 "Hg10 mi
6:30 PM61 °FSunny.10 mph63%30.15 "Hg10 mi
6:00 PM63 °FSunny.13 mph64%30.15 "Hg10 mi
5:30 PM64 °FSunny.10 mph64%30.15 "Hg10 mi
5:00 PM63 °FPartly sunny.15 mph64%30.15 "HgN/A
4:30 PM64 °FPartly sunny.15 mph56%30.12 "HgN/A
4:00 PM68 °FScattered clouds.15 mph53%30.12 "HgN/A
3:30 PM68 °FBroken clouds.15 mph53%30.12 "HgN/A
3:00 PM68 °FBroken clouds.13 mph53%30.12 "HgN/A
2:30 PM70 °FSunny.15 mph50%30.12 "Hg10 mi
2:00 PM68 °FScattered clouds.13 mph56%30.12 "HgN/A
1:30 PM66 °FPassing clouds.8 mph64%30.12 "HgN/A
1:00 PM64 °FPassing clouds.6 mph73%30.12 "HgN/A
12:30 PM63 °FPartly sunny.8 mph77%30.12 "HgN/A
12:00 PM63 °FPassing clouds.8 mph77%30.12 "HgN/A
11:30 AM63 °FSunny.10 mph77%30.12 "Hg10 mi
11:00 AM63 °FSunny.8 mph77%30.12 "Hg10 mi
10:30 AM64 °FPartly sunny.13 mph78%30.12 "HgN/A
10:00 AM63 °FPartly sunny.15 mph77%30.12 "HgN/A
9:30 AM63 °FScattered clouds.10 mph83%30.09 "HgN/A
9:00 AM61 °FScattered clouds.8 mph83%30.09 "HgN/A
8:30 AM57 °FScattered clouds.6 mph88%30.09 "HgN/A
8:00 AM59 °FPartly cloudy.3 mph82%30.09 "HgN/A
7:30 AM59 °FPartly cloudy.3 mph88%30.09 "HgN/A
6:30 AM52 °FPartly cloudy.6 mph94%30.09 "HgN/A
6:00 AM52 °FPartly cloudy.3 mph88%30.09 "HgN/A
5:00 AM55 °FPartly cloudy.6 mph82%30.09 "HgN/A
Weather by CustomWeather, © 2014

See weather overviewHow to use our weather pages